Weather History for Canton, GA

Change the Weather History Date:

Tuesday, February 19, 2013

  Actual Average (KGVL) Record (KGVL)
Temperature  
Mean Temperature 45 °F 46 °F  
Max Temperature 55 °F 56 °F 76 °F (1939)
Min Temperature 35 °F 37 °F 13 °F (1958)
Degree Days  
Heating Degree Days 20 19  
Month to date heating degree days 390  
Since 1 July heating degree days 2308  
Moisture  
Dew Point 23 °F    
Average Humidity 52    
Maximum Humidity 87    
Minimum Humidity 17    
Precipitation  
Precipitation 0.00 in 0.18 in 1.40 in (1946)
Month to date precipitation 3.11  
Year to date precipitation 8.14  
Snow  
Snow 0.00 in - - ()
Month to date snowfall  
Since 1 July snowfall  
Snow Depth -    
Sea Level Pressure  
Sea Level Pressure 30.06 in    
Wind  
Wind Speed 6 mph (NW)    
Max Wind Speed 15 mph    
Max Gust Speed 26 mph    
Visibility 7 miles    
Events Rain , Snow    
T = Trace of Precipitation, MM = Missing Value Source: NWS Daily Summary

Daily Weather History Graph

Daily Weather History Graph

Search for Another Location

Airport:

Trip Planner

Search our weather history database for the weather conditions in past years. The results will help you decide how hot, cold, wet, or windy it might be!

Date:

Astronomy

Feb. 19, 2013 Rise Set
Actual Time 7:18 AM EST 6:25 PM EST
Civil Twilight 6:52 AM EST 6:50 PM EST
Nautical Twilight 6:23 AM EST 7:20 PM EST
Astronomical Twilight 5:54 AM EST 7:49 PM EST
Moon 1:04 PM EST (2/19) 2:41 AM EST (2/19)
Length of Visible Light 11h 58m
Length of Day
11h 07m
Waxing Gibbous, 67% of the Moon is Illuminated
Feb 19
Waxing Gibbous
Feb 25
Full
Mar 4
Last Quarter
Mar 11
New
Mar 19
First Quarter

Hourly Weather History & Observations

Time (EST) Temp. Windchill Dew Point Humidity Pressure Visibility Wind Dir Wind Speed Gust Speed Precip Events Conditions
12:15 AM 46.4 °F 41.9 °F 8.6 °F 22% 30.11 in 10.0 mi SE 9.2 mph - N/A   Overcast
12:35 AM 46.4 °F 42.4 °F 8.6 °F 22% 30.09 in 10.0 mi ESE 8.1 mph - N/A   Overcast
12:55 AM 46.4 °F 43.5 °F 8.6 °F 22% 30.07 in 10.0 mi East 5.8 mph - N/A   Overcast
1:15 AM 46.4 °F 41.9 °F 10.4 °F 23% 30.07 in 10.0 mi ESE 9.2 mph - N/A   Overcast
1:35 AM 46.4 °F 42.4 °F 14.0 °F 27% 30.07 in 10.0 mi ESE 8.1 mph - N/A Rain Light Rain
1:55 AM 46.4 °F 41.9 °F 14.0 °F 27% 30.05 in 10.0 mi ESE 9.2 mph - N/A   Light Drizzle
2:15 AM 46.4 °F 42.4 °F 14.0 °F 27% 30.06 in 10.0 mi SE 8.1 mph - N/A   Overcast
2:35 AM 46.4 °F 42.9 °F 14.0 °F 27% 30.04 in 10.0 mi ESE 6.9 mph - N/A   Overcast
2:55 AM 46.4 °F 43.5 °F 17.6 °F 32% 30.04 in 10.0 mi ESE 5.8 mph 16.1 mph N/A Rain Light Rain
3:15 AM 44.6 °F 42.2 °F 21.2 °F 39% 30.03 in 10.0 mi East 4.6 mph - N/A Rain Light Rain
3:35 AM 42.8 °F 41.1 °F 28.4 °F 57% 30.06 in 5.0 mi NE 3.5 mph - N/A Rain Rain
3:55 AM 41.0 °F 37.1 °F 32.0 °F 70% 30.04 in 5.0 mi ENE 5.8 mph - N/A Rain Rain
4:15 AM 41.0 °F 38.0 °F 32.0 °F 70% 30.03 in 3.0 mi East 4.6 mph - N/A Rain Rain
4:35 AM 37.4 °F - 32.0 °F 81% 30.09 in 1.0 mi Calm Calm - N/A Snow Light Snow
4:55 AM 37.4 °F - 32.0 °F 81% 30.07 in 3.0 mi Calm Calm - N/A Rain Rain
5:15 AM 37.4 °F - 33.8 °F 87% 30.08 in 0.8 mi Calm Calm - N/A Rain Heavy Rain
5:35 AM 37.4 °F - 33.8 °F 87% 30.08 in 0.8 mi Calm Calm - N/A Rain Light Rain
5:55 AM 37.4 °F - 33.8 °F 87% 30.09 in 1.0 mi Calm Calm - N/A Rain Light Rain
6:15 AM 37.4 °F 34.9 °F 32.0 °F 81% 30.07 in 4.0 mi ENE 3.5 mph - N/A Rain Rain
6:35 AM 37.4 °F 33.8 °F 33.8 °F 87% 30.05 in 3.0 mi East 4.6 mph - N/A Rain Light Rain
6:55 AM 37.4 °F 30.8 °F 32.0 °F 81% 30.03 in 3.0 mi ESE 9.2 mph - N/A   Drizzle
7:35 AM 37.4 °F 33.8 °F 33.8 °F 87% 30.03 in 7.0 mi East 4.6 mph - N/A   Overcast
7:55 AM 37.4 °F 33.8 °F 33.8 °F 87% 30.04 in 5.0 mi ENE 4.6 mph - N/A   Overcast
8:15 AM 37.4 °F 32.8 °F 33.8 °F 87% 30.04 in 3.0 mi ENE 5.8 mph - N/A   Overcast
8:35 AM 37.4 °F 32.8 °F 33.8 °F 87% 30.04 in 5.0 mi ENE 5.8 mph - N/A   Overcast
8:55 AM 37.4 °F 32.8 °F 33.8 °F 87% 30.05 in 5.0 mi East 5.8 mph - N/A   Haze
9:15 AM 37.4 °F 34.9 °F 33.8 °F 87% 30.05 in 5.0 mi East 3.5 mph - N/A   Overcast
9:35 AM 37.4 °F - 33.8 °F 87% 30.05 in 4.0 mi Calm Calm - N/A   Drizzle
9:55 AM 39.2 °F - 35.6 °F 87% 30.06 in 2.5 mi Calm Calm - N/A   Light Drizzle
10:15 AM 39.2 °F - 35.6 °F 87% 30.06 in 2.0 mi Calm Calm - N/A   Light Drizzle
10:35 AM 39.2 °F - 35.6 °F 87% 30.06 in 2.0 mi Calm Calm - N/A   Overcast
10:55 AM 41.0 °F - 35.6 °F 81% 30.06 in 2.5 mi Calm Calm - N/A   Haze
11:15 AM 41.0 °F - 35.6 °F 81% 30.05 in 2.5 mi Calm Calm - N/A   Overcast
11:35 AM 41.0 °F - 37.4 °F 87% 30.06 in 3.0 mi Calm Calm - N/A   Overcast
11:55 AM 42.8 °F 41.1 °F 39.2 °F 87% 30.05 in 4.0 mi WNW 3.5 mph - N/A   Overcast
12:15 PM 44.6 °F - 39.2 °F 81% 30.05 in 7.0 mi Calm Calm - N/A   Overcast
12:35 PM 44.6 °F 41.4 °F 41.0 °F 87% 30.04 in 7.0 mi West 5.8 mph - N/A   Overcast
12:55 PM 46.4 °F 44.3 °F 41.0 °F 81% 30.04 in 10.0 mi West 4.6 mph - N/A   Overcast
1:35 PM 51.8 °F - 35.6 °F 54% 30.02 in 10.0 mi WNW 4.6 mph - N/A   Scattered Clouds
1:55 PM 51.8 °F - 32.0 °F 47% 30.01 in 10.0 mi NW 11.5 mph 18.4 mph N/A   Clear
2:15 PM 53.6 °F - 32.0 °F 44% 30.01 in 10.0 mi West 8.1 mph 17.3 mph N/A   Clear
2:35 PM 51.8 °F - 32.0 °F 47% 30.01 in 10.0 mi WNW 9.2 mph - N/A   Clear
2:55 PM 55.4 °F - 28.4 °F 36% 30.00 in 10.0 mi West 11.5 mph 24.2 mph N/A   Clear
3:15 PM 55.4 °F - 24.8 °F 31% 30.00 in 10.0 mi West 5.8 mph 18.4 mph N/A   Clear
3:35 PM 55.4 °F - 19.4 °F 25% 30.00 in 10.0 mi WNW 12.7 mph 24.2 mph N/A   Clear
3:55 PM 53.6 °F - 14.0 °F 21% 30.01 in 10.0 mi WNW 15.0 mph 25.3 mph N/A   Clear
4:15 PM 53.6 °F - 17.6 °F 24% 30.02 in 10.0 mi WNW 5.8 mph 19.6 mph N/A   Clear
4:35 PM 53.6 °F - 12.2 °F 19% 30.02 in 10.0 mi WNW 12.7 mph 26.5 mph N/A   Clear
4:55 PM 53.6 °F - 14.0 °F 21% 30.03 in 10.0 mi West 10.4 mph 18.4 mph N/A   Clear
5:15 PM 51.8 °F - 10.4 °F 19% 30.04 in 10.0 mi WNW 8.1 mph 20.7 mph N/A   Clear
5:35 PM 51.8 °F - 8.6 °F 18% 30.04 in 10.0 mi WNW 12.7 mph 21.9 mph N/A   Clear
5:55 PM 50.0 °F - 6.8 °F 17% 30.04 in 10.0 mi West 10.4 mph 21.9 mph N/A   Clear
6:15 PM 50.0 °F - 8.6 °F 19% 30.05 in 10.0 mi WNW 11.5 mph 18.4 mph N/A   Clear
6:35 PM 48.2 °F - 8.6 °F 20% 30.06 in 10.0 mi WNW 9.2 mph 21.9 mph N/A   Clear
7:35 PM 44.6 °F 40.7 °F 12.2 °F 27% 30.09 in 10.0 mi WNW 6.9 mph - N/A   Clear
7:55 PM 42.8 °F 40.1 °F 14.0 °F 31% 30.09 in 10.0 mi WNW 4.6 mph - N/A   Clear
8:15 PM 42.8 °F 39.3 °F 12.2 °F 29% 30.10 in 10.0 mi WNW 5.8 mph - N/A   Clear
8:55 PM 39.2 °F 35.9 °F 14.0 °F 36% 30.11 in 10.0 mi NW 4.6 mph - N/A   Clear
9:15 PM 37.4 °F 32.1 °F 12.2 °F 36% 30.11 in 10.0 mi NW 6.9 mph - N/A   Clear
9:35 PM 39.2 °F 33.0 °F 10.4 °F 31% 30.11 in 10.0 mi WNW 9.2 mph - N/A   Clear
9:55 PM 37.4 °F 33.8 °F 10.4 °F 33% 30.12 in 10.0 mi WNW 4.6 mph - N/A   Clear
10:15 PM 37.4 °F 32.8 °F 10.4 °F 33% 30.13 in 10.0 mi WNW 5.8 mph - N/A   Clear
10:35 PM 37.4 °F 32.1 °F 10.4 °F 33% 30.13 in 10.0 mi NW 6.9 mph - N/A   Clear
10:55 PM 37.4 °F 32.1 °F 10.4 °F 33% 30.14 in 10.0 mi WNW 6.9 mph - N/A   Clear
11:15 PM 37.4 °F 32.8 °F 8.6 °F 30% 30.14 in 10.0 mi WNW 5.8 mph - N/A   Clear
11:35 PM 35.6 °F 28.6 °F 10.4 °F 35% 30.15 in 10.0 mi NW 9.2 mph - N/A   Clear
11:55 PM 35.6 °F 30.7 °F 8.6 °F 33% 30.15 in 10.0 mi NW 5.8 mph - N/A   Clear